Time,TemperatureF,DewpointF,PressureIn,WindDirection,WindDirectionDegrees,WindSpeedMPH,WindSpeedGustMPH,Humidity,HourlyPrecipIn,Conditions,Clouds,dailyrainin,SolarRadiationWatts/m^2,SoftwareType,DateUTC
2013-04-26 00:21:00,39.0,39.0,-100.00,NNW,343,15.0,32.0,100,0.11,,,1.28,0.000000,,2013-04-26 08:21:00,
2013-04-26 00:31:00,39.0,39.0,-100.00,NNW,343,15.0,32.0,100,0.11,,,1.28,0.000000,,2013-04-26 08:31:00,
2013-04-26 00:42:00,39.0,39.0,-100.00,NNW,343,15.0,32.0,100,0.11,,,1.28,0.000000,,2013-04-26 08:42:00,
2013-04-26 00:51:00,39.0,39.0,-100.00,NNW,343,15.0,32.0,100,0.11,,,1.28,0.000000,,2013-04-26 08:51:00,
2013-04-26 01:21:00,39.0,39.0,-100.00,NNW,334,16.0,34.0,100,0.23,,,1.50,0.000000,,2013-04-26 09:21:00,
2013-04-26 01:33:00,39.0,39.0,-100.00,NNW,334,16.0,34.0,100,0.23,,,1.50,0.000000,,2013-04-26 09:33:00,
2013-04-26 01:42:00,39.0,39.0,-100.00,NNW,334,16.0,34.0,100,0.23,,,1.50,0.000000,,2013-04-26 09:42:00,
2013-04-26 01:53:00,39.0,39.0,-100.00,NNW,334,16.0,34.0,100,0.23,,,1.50,0.000000,,2013-04-26 09:53:00,
2013-04-26 02:22:00,40.0,40.0,-100.00,NNW,344,18.0,35.0,100,0.16,,,1.66,0.000000,,2013-04-26 10:22:00,
2013-04-26 02:33:00,40.0,40.0,-100.00,NNW,344,18.0,35.0,100,0.16,,,1.66,0.000000,,2013-04-26 10:33:00,
2013-04-26 02:42:00,40.0,40.0,-100.00,NNW,344,18.0,35.0,100,0.16,,,1.66,0.000000,,2013-04-26 10:42:00,
2013-04-26 02:52:00,40.0,40.0,-100.00,NNW,344,18.0,35.0,100,0.16,,,1.66,0.000000,,2013-04-26 10:52:00,
2013-04-26 03:22:00,41.0,41.0,-100.00,NNW,339,18.0,37.0,100,0.17,,,1.83,0.000000,,2013-04-26 11:22:00,
2013-04-26 03:32:00,41.0,41.0,-100.00,NNW,339,18.0,37.0,100,0.17,,,1.83,0.000000,,2013-04-26 11:32:00,
2013-04-26 03:41:00,41.0,41.0,-100.00,NNW,339,18.0,37.0,100,0.17,,,1.83,0.000000,,2013-04-26 11:41:00,
2013-04-26 03:52:00,41.0,41.0,-100.00,NNW,339,18.0,37.0,100,0.17,,,1.83,0.000000,,2013-04-26 11:52:00,
2013-04-26 04:21:00,42.0,42.0,-100.00,NNW,342,24.0,37.0,100,0.14,,,1.97,0.000000,,2013-04-26 12:21:00,
2013-04-26 04:32:00,42.0,42.0,-100.00,NNW,342,24.0,37.0,100,0.14,,,1.97,0.000000,,2013-04-26 12:32:00,
2013-04-26 04:41:00,42.0,42.0,-100.00,NNW,342,24.0,37.0,100,0.14,,,1.97,0.000000,,2013-04-26 12:41:00,
2013-04-26 04:52:00,42.0,42.0,-100.00,NNW,342,24.0,37.0,100,0.14,,,1.97,0.000000,,2013-04-26 12:52:00,
2013-04-26 05:21:00,42.0,42.0,-100.00,NNW,339,22.0,36.0,100,0.13,,,2.10,0.000000,,2013-04-26 13:21:00,
2013-04-26 05:31:00,42.0,42.0,-100.00,NNW,339,22.0,36.0,100,0.13,,,2.10,0.000000,,2013-04-26 13:31:00,
2013-04-26 05:41:00,42.0,42.0,-100.00,NNW,339,22.0,36.0,100,0.13,,,2.10,0.000000,,2013-04-26 13:41:00,
2013-04-26 05:52:00,42.0,42.0,-100.00,NNW,339,22.0,36.0,100,0.13,,,2.10,0.000000,,2013-04-26 13:52:00,
2013-04-26 06:21:00,42.0,42.0,-100.00,NNW,339,20.0,30.0,100,0.08,,,2.07,1.000000,,2013-04-26 14:21:00,
2013-04-26 06:32:00,42.0,42.0,-100.00,NNW,339,20.0,30.0,100,0.08,,,2.07,1.000000,,2013-04-26 14:32:00,
2013-04-26 06:41:00,42.0,42.0,-100.00,NNW,339,20.0,30.0,100,0.08,,,2.07,1.000000,,2013-04-26 14:41:00,
2013-04-26 06:51:00,42.0,42.0,-100.00,NNW,339,20.0,30.0,100,0.08,,,2.07,1.000000,,2013-04-26 14:51:00,
2013-04-26 07:21:00,42.0,42.0,-100.00,North,353,16.0,26.0,100,0.13,,,2.12,12.000000,,2013-04-26 15:21:00,
2013-04-26 07:33:00,42.0,42.0,-100.00,North,353,16.0,26.0,100,0.13,,,2.12,12.000000,,2013-04-26 15:33:00,
2013-04-26 07:42:00,42.0,42.0,-100.00,North,353,16.0,26.0,100,0.13,,,2.12,12.000000,,2013-04-26 15:42:00,
2013-04-26 07:52:00,42.0,42.0,-100.00,North,353,16.0,26.0,100,0.13,,,2.12,12.000000,,2013-04-26 15:52:00,
2013-04-26 08:23:00,39.0,39.0,-100.00,North,4,16.0,38.0,100,0.21,,,2.30,9.000000,,2013-04-26 16:23:00,
2013-04-26 08:33:00,39.0,39.0,-100.00,North,4,16.0,38.0,100,0.21,,,2.30,9.000000,,2013-04-26 16:33:00,
2013-04-26 08:42:00,39.0,39.0,-100.00,North,4,16.0,38.0,100,0.21,,,2.30,9.000000,,2013-04-26 16:42:00,
2013-04-26 08:52:00,39.0,39.0,-100.00,North,4,16.0,38.0,100,0.21,,,2.30,9.000000,,2013-04-26 16:52:00,
2013-04-26 09:21:00,40.0,40.0,-100.00,North,354,19.0,29.0,100,0.10,,,2.40,39.000000,,2013-04-26 17:21:00,
2013-04-26 09:31:00,40.0,40.0,-100.00,North,354,19.0,29.0,100,0.10,,,2.40,39.000000,,2013-04-26 17:31:00,
2013-04-26 09:41:00,40.0,40.0,-100.00,North,354,19.0,29.0,100,0.10,,,2.40,39.000000,,2013-04-26 17:41:00,
2013-04-26 09:51:00,40.0,40.0,-100.00,North,354,19.0,29.0,100,0.10,,,2.40,39.000000,,2013-04-26 17:51:00,
2013-04-26 10:22:00,40.0,40.0,-100.00,North,0,19.0,36.0,100,0.16,,,2.53,59.000000,,2013-04-26 18:22:00,
2013-04-26 10:33:00,40.0,40.0,-100.00,North,0,19.0,36.0,100,0.16,,,2.53,59.000000,,2013-04-26 18:33:00,
2013-04-26 10:41:00,40.0,40.0,-100.00,North,0,19.0,36.0,100,0.16,,,2.53,59.000000,,2013-04-26 18:41:00,
2013-04-26 10:52:00,40.0,40.0,-100.00,North,0,19.0,36.0,100,0.16,,,2.53,59.000000,,2013-04-26 18:52:00,
2013-04-26 11:22:00,39.0,39.0,-100.00,North,5,19.0,36.0,100,0.20,,,2.71,43.000000,,2013-04-26 19:22:00,
2013-04-26 11:31:00,39.0,39.0,-100.00,North,5,19.0,36.0,100,0.20,,,2.71,43.000000,,2013-04-26 19:31:00,
2013-04-26 11:41:00,39.0,39.0,-100.00,North,5,19.0,36.0,100,0.20,,,2.71,43.000000,,2013-04-26 19:41:00,
2013-04-26 11:52:00,39.0,39.0,-100.00,North,5,19.0,36.0,100,0.20,,,2.71,43.000000,,2013-04-26 19:52:00,
2013-04-26 12:21:00,40.0,40.0,-100.00,North,351,18.0,31.0,100,0.11,,,2.81,72.000000,,2013-04-26 20:21:00,
2013-04-26 12:32:00,40.0,40.0,-100.00,North,351,18.0,31.0,100,0.11,,,2.81,72.000000,,2013-04-26 20:32:00,
2013-04-26 12:42:00,40.0,40.0,-100.00,North,351,18.0,31.0,100,0.11,,,2.81,72.000000,,2013-04-26 20:42:00,
2013-04-26 12:51:00,40.0,40.0,-100.00,North,351,18.0,31.0,100,0.11,,,2.81,72.000000,,2013-04-26 20:51:00,
2013-04-26 13:21:00,40.0,40.0,-100.00,North,359,18.0,30.0,100,0.14,,,2.93,61.000000,,2013-04-26 21:21:00,
2013-04-26 13:32:00,40.0,40.0,-100.00,North,359,18.0,30.0,100,0.14,,,2.93,61.000000,,2013-04-26 21:32:00,
2013-04-26 13:42:00,40.0,40.0,-100.00,North,359,18.0,30.0,100,0.14,,,2.93,61.000000,,2013-04-26 21:42:00,
2013-04-26 13:52:00,40.0,40.0,-100.00,North,359,18.0,30.0,100,0.14,,,2.93,61.000000,,2013-04-26 21:52:00,
2013-04-26 14:22:00,40.0,40.0,-100.00,North,3,18.0,30.0,100,0.11,,,2.98,63.000000,,2013-04-26 22:22:00,
2013-04-26 14:33:00,40.0,40.0,-100.00,North,3,18.0,30.0,100,0.11,,,2.98,63.000000,,2013-04-26 22:33:00,
2013-04-26 14:42:00,40.0,40.0,-100.00,North,3,18.0,30.0,100,0.11,,,2.98,63.000000,,2013-04-26 22:42:00,
2013-04-26 14:52:00,40.0,40.0,-100.00,North,3,18.0,30.0,100,0.11,,,2.98,63.000000,,2013-04-26 22:52:00,
2013-04-26 15:21:00,39.0,39.0,-100.00,North,9,18.0,36.0,100,0.13,,,3.07,68.000000,,2013-04-26 23:21:00,
2013-04-26 15:32:00,39.0,39.0,-100.00,North,9,18.0,36.0,100,0.13,,,3.07,68.000000,,2013-04-26 23:32:00,
2013-04-26 15:42:00,39.0,39.0,-100.00,North,9,18.0,36.0,100,0.13,,,3.07,68.000000,,2013-04-26 23:42:00,
2013-04-26 15:52:00,39.0,39.0,-100.00,North,9,18.0,36.0,100,0.13,,,3.07,68.000000,,2013-04-26 23:52:00,
2013-04-26 16:21:00,37.0,37.0,-100.00,NNE,16,14.0,27.0,100,0.16,,,3.17,55.000000,,2013-04-27 00:21:00,
2013-04-26 16:32:00,37.0,37.0,-100.00,NNE,16,14.0,27.0,100,0.16,,,3.17,55.000000,,2013-04-27 00:32:00,
2013-04-26 16:41:00,37.0,37.0,-100.00,NNE,16,14.0,27.0,100,0.16,,,3.17,55.000000,,2013-04-27 00:41:00,
2013-04-26 16:51:00,37.0,37.0,-100.00,NNE,16,14.0,27.0,100,0.16,,,3.17,55.000000,,2013-04-27 00:51:00,
2013-04-26 17:21:00,37.0,37.0,-100.00,NNE,22,11.0,24.0,100,0.17,,,3.26,37.000000,,2013-04-27 01:21:00,
2013-04-26 17:32:00,37.0,37.0,-100.00,NNE,22,11.0,24.0,100,0.17,,,3.26,37.000000,,2013-04-27 01:32:00,
2013-04-26 17:41:00,37.0,37.0,-100.00,NNE,22,11.0,24.0,100,0.17,,,3.26,37.000000,,2013-04-27 01:41:00,
2013-04-26 17:52:00,37.0,37.0,-100.00,NNE,22,11.0,24.0,100,0.17,,,3.26,37.000000,,2013-04-27 01:52:00,
2013-04-26 18:22:00,36.0,36.0,-100.00,North,11,12.0,26.0,100,0.19,,,3.35,20.000000,,2013-04-27 02:22:00,
2013-04-26 18:32:00,36.0,36.0,-100.00,North,11,12.0,26.0,100,0.19,,,3.35,20.000000,,2013-04-27 02:32:00,
2013-04-26 18:42:00,36.0,36.0,-100.00,North,11,12.0,26.0,100,0.19,,,3.35,20.000000,,2013-04-27 02:42:00,
2013-04-26 18:51:00,36.0,36.0,-100.00,North,11,12.0,26.0,100,0.19,,,3.35,20.000000,,2013-04-27 02:51:00,
2013-04-26 19:22:00,35.0,35.0,-100.00,NNE,17,13.0,24.0,100,0.18,,,3.45,11.000000,,2013-04-27 03:22:00,
2013-04-26 19:32:00,35.0,35.0,-100.00,NNE,17,13.0,24.0,100,0.18,,,3.45,11.000000,,2013-04-27 03:32:00,
2013-04-26 19:42:00,35.0,35.0,-100.00,NNE,17,13.0,24.0,100,0.18,,,3.45,11.000000,,2013-04-27 03:42:00,
2013-04-26 19:52:00,35.0,35.0,-100.00,NNE,17,13.0,24.0,100,0.18,,,3.45,11.000000,,2013-04-27 03:52:00,
2013-04-26 20:22:00,35.0,35.0,-100.00,North,5,10.0,21.0,100,0.10,,,3.46,5.000000,,2013-04-27 04:22:00,
2013-04-26 20:33:00,35.0,35.0,-100.00,North,5,10.0,21.0,100,0.10,,,3.46,5.000000,,2013-04-27 04:33:00,
2013-04-26 20:43:00,35.0,35.0,-100.00,North,5,10.0,21.0,100,0.10,,,3.46,5.000000,,2013-04-27 04:43:00,
2013-04-26 20:52:00,35.0,35.0,-100.00,North,5,10.0,21.0,100,0.10,,,3.46,5.000000,,2013-04-27 04:52:00,
2013-04-26 21:22:00,35.0,35.0,-100.00,North,352,12.0,19.0,100,0.04,,,3.41,4.000000,,2013-04-27 05:22:00,
2013-04-26 21:32:00,35.0,35.0,-100.00,North,352,12.0,19.0,100,0.04,,,3.41,4.000000,,2013-04-27 05:32:00,
2013-04-26 21:42:00,35.0,35.0,-100.00,North,352,12.0,19.0,100,0.04,,,3.41,4.000000,,2013-04-27 05:42:00,
2013-04-26 21:52:00,35.0,35.0,-100.00,North,352,12.0,19.0,100,0.04,,,3.41,4.000000,,2013-04-27 05:52:00,
2013-04-26 22:22:00,35.0,35.0,-100.00,NE,37,7.0,20.0,100,0.04,,,-99.99,0.000000,,2013-04-27 06:22:00,
2013-04-26 22:32:00,35.0,35.0,-100.00,NE,37,7.0,20.0,100,0.04,,,-99.99,0.000000,,2013-04-27 06:32:00,
2013-04-26 22:41:00,35.0,35.0,-100.00,NE,37,7.0,20.0,100,0.04,,,-99.99,0.000000,,2013-04-27 06:41:00,
2013-04-26 22:51:00,35.0,35.0,-100.00,NE,37,7.0,20.0,100,0.04,,,-99.99,0.000000,,2013-04-27 06:51:00,
2013-04-26 23:21:00,33.0,33.0,-100.00,NNE,29,4.0,11.0,100,0.00,,,3.19,0.000000,,2013-04-27 07:21:00,
2013-04-26 23:31:00,33.0,33.0,-100.00,NNE,29,4.0,11.0,100,0.00,,,3.19,0.000000,,2013-04-27 07:31:00,
2013-04-26 23:42:00,33.0,33.0,-100.00,NNE,29,4.0,11.0,100,0.00,,,3.19,0.000000,,2013-04-27 07:42:00,
2013-04-26 23:52:00,33.0,33.0,-100.00,NNE,29,4.0,11.0,100,0.00,,,3.19,0.000000,,2013-04-27 07:52:00,